Home > Weather > Esfahãn > Past weeks

Flag for Iran Weather for the Past 2 Weeks in Esfahãn, Iran

Now
59 °F

Passing clouds.


Feels Like: 59 °F
Forecast: 53 / 78 °F
Wind: 5 mph from Southeast

Location: Esfahan

Current Time: May 1, 2016 at 7:44:22 AM

Latest Report: May 1, 2016 at 7:00 AM


Visibility: 4 mi

Pressure: 30.04 "Hg (24.92 "Hg at 1576m altitude)

Humidity: 59%

Dew Point: 45 °F

Location of EsfahãnLocation

Historic Weather in Esfahãn — Graph

°F

Esfahãn Temperature Yesterday

Maximum temperature yesterday: 81 °F (at 12:30 PM)
Minimum temperature yesterday: 55 °F (at 5:00 AM)
Average temperature yesterday: 69 °F

High & Low Weather Summary for the Past Weeks

 TemperatureHumidityPressure
High86 °F (Apr 27, 3:30 PM)87% (Apr 16, 6:30 AM)30.24 "Hg (Apr 16, 6:30 AM)
Low37 °F (Apr 20, 6:30 AM)8% (Apr 27, 5:00 PM)29.92 "Hg (Apr 24, 4:30 PM)
Average64 °F30%30.06 "Hg
* Reported Apr 16 5:30 AM — May 1 6:00 AM, Esfahãn, Weather by CustomWeather, © 2016

Note: Actual official high and low records may vary slightly from our data, if they occured in-between our weather recording intervals... More about our weather records

Advertising

Esfahãn Weather History for the Previous 24 Hours

Scroll right to see more
 ConditionsComfort  
Time TempWeatherWind HumidityBarometerVisibility
6:00 AM
Sun, May 1
61 °FPassing clouds.5 mph52%30.04 "Hg4 mi
5:30 AM61 °FPassing clouds.7 mph48%30.01 "HgN/A
5:00 AM61 °FPassing clouds.5 mph45%30.01 "HgN/A
4:30 AM61 °FPassing clouds.7 mph39%30.01 "HgN/A
4:00 AM63 °FPassing clouds.5 mph37%30.01 "HgN/A
3:30 AM64 °FPassing clouds.7 mph34%30.01 "HgN/A
3:00 AM64 °FPassing clouds.5 mph34%30.01 "HgN/A
2:30 AM64 °FPassing clouds.5 mph37%30.01 "HgN/A
2:00 AM66 °FPassing clouds.No wind32%30.01 "HgN/A
1:30 AM64 °FPassing clouds.9 mph30%30.01 "HgN/A
1:00 AM66 °FPassing clouds.12 mph28%29.98 "HgN/A
12:30 AM64 °FPassing clouds.12 mph30%29.98 "HgN/A
12:00 AM66 °FPassing clouds.12 mph28%29.98 "HgN/A
11:30 PM
Sat, Apr 30
66 °FPassing clouds.12 mph30%29.98 "HgN/A
11:00 PM66 °FPassing clouds.9 mph30%29.98 "HgN/A
10:30 PM66 °FPassing clouds.9 mph28%29.98 "HgN/A
10:00 PM70 °FPassing clouds.7 mph25%29.98 "HgN/A
9:30 PM68 °FPartly cloudy.7 mph26%29.98 "HgN/A
9:00 PM70 °FMostly cloudy.5 mph23%29.98 "HgN/A
8:30 PM70 °FMostly cloudy.12 mph23%29.98 "HgN/A
8:00 PM73 °FMostly cloudy.7 mph19%29.95 "HgN/A
7:30 PM73 °FMostly cloudy.12 mph19%29.92 "HgN/A
7:00 PM75 °FMostly cloudy.12 mph18%29.92 "HgN/A
6:30 PM77 °FMostly cloudy.12 mph17%29.92 "HgN/A
6:00 PM79 °FCloudy.14 mph15%29.92 "HgN/A
5:30 PM79 °FBroken clouds.18 mph16%29.92 "HgN/A
5:00 PM79 °FBroken clouds.16 mph16%29.92 "HgN/A
4:30 PM79 °FBroken clouds.14 mph16%29.92 "HgN/A
4:00 PM79 °FBroken clouds.14 mph17%29.92 "Hg4 mi
3:30 PM79 °FMore clouds than sun.18 mph17%29.95 "Hg4 mi
3:00 PM81 °FBroken clouds.12 mph16%29.95 "Hg4 mi
2:30 PM79 °FBroken clouds.12 mph20%29.95 "Hg3 mi
2:00 PM81 °FSandstorm.21 mph16%29.95 "Hg3 mi
1:30 PM81 °FSandstorm.21 mph18%29.95 "Hg3 mi
1:00 PM77 °FSandstorm.22 mph21%29.98 "Hg3 mi
12:30 PM81 °FSandstorm.21 mph18%29.98 "Hg3 mi
12:00 PM79 °FSandstorm.16 mph21%29.98 "Hg3 mi
11:30 AM77 °FSandstorm.21 mph21%29.98 "Hg3 mi
11:00 AM77 °FScattered clouds.12 mph21%30.01 "Hg3 mi
10:30 AM73 °FBroken clouds.12 mph23%30.01 "Hg3 mi
10:00 AM73 °FScattered clouds.9 mph22%29.98 "Hg3 mi
9:30 AM73 °FScattered clouds.7 mph23%29.98 "Hg3 mi
9:00 AM70 °FScattered clouds.7 mph27%29.98 "Hg3 mi
8:30 AM68 °FScattered clouds.No wind28%29.98 "Hg3 mi
8:00 AM64 °FScattered clouds.5 mph32%29.98 "Hg4 mi
7:30 AM57 °FPartly cloudy.No wind36%29.98 "Hg5 mi
7:00 AM55 °FPassing clouds.No wind36%29.95 "Hg5 mi
Weather by CustomWeather, © 2016

See weather overviewHow to use our weather pages